Regional Weather Roundup
Issued by NWS Wakefield, VA

Home | Current Version | Previous Version | Text Only | Print | Product List | Glossary On
Versions: 1 2 3 4 5 6 7 8 9 10 11 12 13 14 15 16 17 18 19 20 21 22 23 24 25 26 27
000
ASUS41 KAKQ 300515
RWRAKQ

REGIONAL WEATHER ROUNDUP
NATIONAL WEATHER SERVICE WAKEFIELD VA
100 AM EDT MON MAY 30 2016

Note: "fair" indicates few or no clouds below 12,000 feet with no
significant weather and/or obstructions to visibility. * = Denotes
station may not report precipitation (e.g., rain,snow,etc.),
thunder or fog.

VAZ042-051-052>054-056-300600-
NORTHERN VIRGINIA

CITY           SKY/WX    TMP DP  RH WIND       PRES   REMARKS
WASH NATIONAL  CLOUDY    68  65  90 NW5       30.04F
DULLES         CLOUDY    68  63  84 NW6       30.05F
FORT BELVOIR   MOCLDY    68  66  94 CALM      30.04S
QUANTICO       MOCLDY    70  68  93 NW5       30.05F
FREDERICKSBRG* MOCLDY    66  66 100 CALM      30.04S
STAFFORD*      MOCLDY    65  64  94 CALM      30.09R
WARRENTON      CLOUDY    66  62  85 CALM      30.04F
CULPEPER*      FAIR      65  65  99 CALM      30.06F FOG
MANASSAS*      CLOUDY    66  66 100 CALM      30.05F
LEESBURG*      CLOUDY    68  68 100 CALM      30.06F
WINCHESTER     CLOUDY    64  61  88 SW5       30.07S
FRONT ROYAL*   MOCLDY    64  63  94 SW5       30.06S
LURAY*         RAIN      63  63 100 S3        30.08S
$$

VAZ048-049-060>072-079>083-300600-
CENTRAL AND SOUTH CENTRAL VIRGINIA

CITY           SKY/WX    TMP DP  RH WIND       PRES   REMARKS
RICHMOND       CLOUDY    68  67  96 N7        30.04S
CHESTERFIELD*  CLOUDY    70  57  64 N3        30.05F
PETERSBURG*    CLOUDY    71  71 100 CALM      30.04F
HANOVER        CLOUDY    67  65  93 CALM      30.06S
TAPPAHANNOCK*  TSTM      71  71 100 S3        30.05S
QUINTON*       CLOUDY    69  69 100 W8        30.04S
CHARLOTTSVILLE FAIR      64  59  83 W5        30.06F
GORDONSVILLE*  FAIR      65  65 100 CALM      30.05S
ORANGE*        FAIR      64  64 100 CALM      30.07S
LOUISA*        FAIR      66  66 100 CALM      30.05R FOG
BUMPASS*       FAIR      64  64  99 CALM      30.05S
FARMVILLE*     CLOUDY    64  64 100 CALM      30.04S
CREWE*         CLOUDY    68  68 100 CALM      30.04F
FORT PICKETT*  NOT AVBL
CHASE CITY*    CLOUDY    64  63  95 CALM      30.05S
CLARKSVILLE*   MOCLDY    64  64 100 CALM      30.04F
SOUTH HILL*    CLOUDY    68  68 100 N6        30.09F
LAWRENCEVILLE* CLOUDY    69  69 100 CALM      30.03F
EMPORIA*       FOG       68  68 100 CALM      30.05S VSB 1/4
$$

VAZ088>098-300600-
SOUTHEAST VIRGINIA

CITY           SKY/WX    TMP DP  RH WIND       PRES   REMARKS
NORFOLK        FAIR      75  71  87 S9        30.03S
VIRGINIA BEACH FAIR      77  70  79 SE6       30.03S
NORFOLK NAVAL  MOCLDY    76  72  87 S7        30.05S
WEST POINT*    MOCLDY    71  70  98 CALM      30.05S
SALUDA*        MOCLDY    69  69 100 CALM      30.04R
NEWPORT NEWS   FAIR      74  72  93 S3        30.04R
LANGLEY AFB    MOCLDY    74  73  96 S7        30.03S
FORT EUSTIS    MOCLDY    74  34  23 SE5       30.02S
WILLIAMSBURG*  FAIR      73  73 100 SE8       30.04S
HR EXEC AP*      N/A     73  70  88 S3        30.05F
FRANKLIN*      FAIR      72  70  95 SE5       30.04R
US460-WAKEFLD  FAIR      73  71  93 S3        30.03S
$$

VAZ020-022-025-037-045-300600-
WEST CENTRAL AND SOUTHWEST VIRGINIA

CITY           SKY/WX    TMP DP  RH WIND       PRES   REMARKS
STAUNTON*      CLOUDY    60  59  97 CALM      30.12F
WAYNESBORO*    CLOUDY    59  58  96 S9        30.11F
HOT SPRINGS VA FAIR      56  56 100 CALM      30.16F
LYNCHBURG      FAIR      62  60  93 VRB5      30.08F
DANVILLE       CLOUDY    63  62  97 N3        30.06S
SOUTH BOSTON*  MOCLDY    63  61  95 CALM      30.05F
MARTINSVILLE   CLOUDY    60  59  97 NE3       30.10S
ROANOKE        FAIR      61  59  93 N3        30.12S
BLACKSBURG     CLOUDY    59  58  98 CALM      30.16F
DUBLIN*        FAIR      58  58 100 CALM      30.15S FOG
MARION*        FAIR      59  57  96 CALM      30.17F FOG
HILLSVILLE*    MOCLDY    57  56  98 CALM      30.14S
RICHLANDS*     FAIR      61  61 100 CALM      30.13F
WISE*          FAIR      63  61  94 CALM      30.14F
ABINGDON*      FAIR      65  61  88 E6        30.11F
$$

MDZ021>025-VAZ099-100-300600-
SOUTHERN MARYLAND AND THE DELMARVA PENINSULA

CITY           SKY/WX    TMP DP  RH WIND       PRES   REMARKS
PATUXENT RIVER CLOUDY    72  70  93 S5        30.04S
BAY BRIDGE APT CLOUDY    70  68  94 NW5       30.03F
LEONARDTOWN    CLOUDY    72  70  94 CALM      30.06R
DOVER          CLOUDY    73  73 100 S8        30.02F
GEORGETOWN     CLOUDY    73  71  93 S7        30.05F
EASTON         CLOUDY    74  74 100 SW6       30.07F
CAMBRIDGE      CLOUDY    72  70  94 S5        30.03F
SALISBURY      LGT RAIN  73  71  93 S7        30.04F
OCEAN CITY     CLOUDY   N/A N/A N/A VRB3      30.05F
WALLOPS ISLAND MOCLDY    72  69  90 S12       30.05F
ACCOMACK*      MOCLDY    72  70  94 CALM      30.04F
$$

NCZ012>017-030>032-300600-
NORTH CENTRAL AND EASTERN NORTH CAROLINA

CITY           SKY/WX    TMP DP  RH WIND       PRES   REMARKS
ROANOKE RAPIDS FAIR      70  70 100 CALM      30.03S
RALEIGH        MOCLDY    66  64  93 NE5       30.03F
ELIZABETH CITY LGT RAIN  73  71  93 SE5       30.04F
AHOSKIE*       PTCLDY    71  70  98 SE3       30.04S
EDENTON*       CLOUDY   N/A N/A N/A SE5       30.04F
CURRITUCK*     CLOUDY    75  74  98 CALM      30.05S
KILL DEVIL HLS DRIZZLE   74  72  94 SE6       30.04F
MANTEO         NOT AVBL
CAPE HATTERAS  CLOUDY    76  71  85 S12       30.05S
TARBORO*       MOCLDY    71  70  97 CALM      30.03F
GOLDSBORO      NOT AVBL
WASHINGTON     CLOUDY    73  71  92 SE5       30.03S
GREENVILLE     CLOUDY    73  72  94 CALM      30.04F
NEW BERN       MOCLDY    74  71  91 SE5       30.03S
WILMINGTON     MOCLDY    74  72  93 E3        29.99S
$$

VAZ048-300600-
ELSEWHERE

CITY           SKY/WX    TMP DP  RH WIND       PRES   REMARKS
HARRISBURG PA  LGT RAIN  67  62  84 NW13      30.05S
BALTIMORE      CLOUDY    67  64  90 CALM      30.04S
ANNAPOLIS      CLOUDY    69  66  90 CALM      30.02F
ANDREWS AFB    MOCLDY    67  64  92 SE1       30.04R
PHILADELPHIA   RAIN      71  68  90 N3        30.04F FOG
HENDERSON NC   LGT RAIN  62  61  97 CALM      30.04F
GREENSBORO     MOCLDY    64  59  83 NE5       30.05F
ROCKY MOUNT    MOCLDY    71  70  96 CALM      30.02F
$$

VAZ100-300600-
MARINE

STATION/POSITION TIME  TEMP    WIND        PRES    WAVE   SWELL
                       AIR SEA DIR/SP/G            HT/PER HT/PER
                 (UTC) (F)     (DEG/KT/KT) (MB)    (FT/S) (FT/S)
BRANDYWINE LGT   0400   66     170/ 13/ 14 1018.0
CAPE MAY NJ      0400   68 68  140/  7/  9 1017.8
LEWES DE         0400   71 63  180/  5/  9 1017.9
15NM E FENWICK I 0450   68 65              1017.9F   3/ 7
OCEAN-CITY-INLET 0400   67 61  170/  7/ 10 1018.5
WACHAPREAGUE VA  0400   72 78  170/  8/ 10 1017.2
THOMAS POINT MD  0500   69 68  330/  4/  4 1018.3F
GOOSES REEF MD   0500   71 69  150/  2/  4 1018.1F   1
COVE POINT MD    0400   70     200/  7/  9 1017.9
SOLOMONS ISLAND  0400   72 66  180/  4/  5   N/A
BISHOPS HEAD MD  0400   73 76  150/ 13/ 15 1017.3
PINEY POINT MD   0400          200/  3/  4   N/A
POTOMAC MD       0500   72 72  170/  6/  8 1016.2R   1
CAMBRIDGE MD     0400   73 68  150/  3/  4 1016.5
LEWISETTA VA     0400   73 73  230/  4/  6 1016.7
RAPPAHANNOCK LGT 0400          140/ 12/ 13 1017.8F
STINGRAY PT      0400   72 71  160/ 12/ 16 1017.3F   1/ 3
YORK RVR RNG VA  0400   72     140/ 12/ 14 1016.3
YORKTOWN VA      0400   73 72  160/  4/  5 1016.5
JAMESTOWN VA     0500   74 74  140/  6/  8   N/A     0
DOMINION TERM VA 0400   75     160/  8/  9 1016.9
KIPTOPEKE VA     0400      70  150/ 14/ 17   N/A
CHES BAY BRIDGE  0400   72 70  130/  9/ 10 1017.1
CAPE HENRY VA    0400   71     150/ 10/ 13   N/A
CHESAPEAKE LGHT  0400   71     160/ 20/ 20 1017.9F
WILLOUBY STN VA  0400   75     160/ 10/ 11 1017.9
CAPE HENRY BUOY  0412      69                N/A     3/ 8
1ST LANDING BUOY 0500   71 70  140/ 10/ 12 1017.0F   2/ 4
CAPE CHARLES BUO 0426      69                N/A     3/ 8   2/ 8
OFFSHORE WE BUOY 0421      70                N/A     4/ 6   2/11
64NM E OF VA BCH 0450   68 64  170/ 10/ 10 1017.9F   4/ 6   3/ 6
DUCK PIER NC     0400   68 59  140/  8/  8 1017.1
44100 DUCK FRF   0454      68                N/A     4/ 6
44056 DUCK FRF   0411      63                N/A     3/ 7
OREGON INLET NC  0400   74 80  150/  9/ 15 1017.7
HATTERAS NC      0400   76 77  150/  6/  9 1017.2
DIAMOND SHLS NC  0450   77 81  160/ 16/ 21 1017.2R   5/ 7   2/ 8
CAPE LOOKOUT NC  0400   76  C1F1C2F2C3F3C4F4C5F5C6F6C7F7C8M1C9!



USA.gov is the U.S. government's official web portal to all federal, state and local government web resources and services.